Printer-friendly version

IAU Minor Planet Center

Minor Planet Center

MPEC 2004-L14 : 2004 LB

The following Minor Planet Electronic Circular may be linked-to from your own Web pages, but must not otherwise be redistributed electronically.


Read MPEC 2004-L13 Read MPEC 2004-L15


M.P.E.C. 2004-L14                                Issued 2004 June  9, 10:11 UT

     The Minor Planet Electronic Circulars contain information on unusual
         minor planets and routine data on comets.  They are published
   on behalf of Commission 20 of the International Astronomical Union by the
          Minor Planet Center, Smithsonian Astrophysical Observatory,
                          Cambridge, MA 02138, U.S.A.

         Supported in part by the Steven and Michele Kirsch Foundation
             Prepared using the Tamkin Foundation Computer Network

                              MPC@CFA.HARVARD.EDU
          URL http://cfa-www.harvard.edu/iau/mpc.html  ISSN 1523-6714

                                    2004 LB

Observations:
     K04L00B* C2004 06 07.22136 14 43 45.08 -16 10 27.1          17.5 R EL014699
     K04L00B  C2004 06 07.23995 14 43 43.44 -16 03 27.0                 EL014699
     K04L00B  C2004 06 07.25852 14 43 41.63 -15 56 26.2                 EL014699
     K04L00B  C2004 06 07.27712 14 43 40.07 -15 49 26.5                 EL014699
     K04L00B  C2004 06 08.87339 14 42 20.66 -06 17 45.1                 EL014246
     K04L00B  C2004 06 08.87399 14 42 20.65 -06 17 33.1                 EL014246
     K04L00B  C2004 06 08.87444 14 42 20.64 -06 17 23.8                 EL014246
     K04L00B  C2004 06 08.87492 14 42 20.61 -06 17 14.7                 EL014246
     K04L00B  C2004 06 08.87554 14 42 20.54 -06 17 02.3                 EL014246
     K04L00B  C2004 06 08.87650 14 42 20.50 -06 16 42.2                 EL014246
     K04L00B  C2004 06 08.87694 14 42 20.46 -06 16 33.6                 EL014246
     K04L00B  C2004 06 08.87733 14 42 20.44 -06 16 25.0                 EL014246
     K04L00B  C2004 06 08.87786 14 42 20.39 -06 16 15.0                 EL014246
     K04L00B  C2004 06 08.88866 14 42 20.00 -06 12 36.7          18.3 V EL014611
     K04L00B  C2004 06 08.89171 14 42 19.84 -06 11 33.3                 EL014611
     K04L00B  C2004 06 08.89447 14 42 20.04 -06 10 29.2          18.1 R EL014620
     K04L00B  C2004 06 08.89477 14 42 19.61 -06 10 32.5                 EL014611
     K04L00B  C2004 06 08.89762 14 42 19.45 -06 09 33.7                 EL014611
     K04L00B  C2004 06 08.89799 14 42 18.72 -06 09 22.9                 EL014118
     K04L00B  C2004 06 08.89916 14 42 18.71 -06 09 03.3                 EL014118
     K04L00B  C2004 06 08.90034 14 42 18.62 -06 08 37.3                 EL014118
     K04L00B  C2004 06 08.90091 14 42 19.51 -06 08 17.6          18.7 R EL014620
     K04L00B  C2004 06 08.90270 14 42 18.56 -06 07 55.1                 EL014118
     K04L00B  C2004 06 08.93027 14 42 16.85 -05 58 34.0                 EL014557
     K04L00B  C2004 06 08.93096 14 42 16.97 -05 58 19.8                 EL014557
     K04L00B  C2004 06 08.93131 14 42 16.92 -05 58 13.2                 EL014557
     K04L00B  C2004 06 08.93166 14 42 16.81 -05 58 06.7                 EL014557
     K04L00B  C2004 06 08.93375 14 42 16.66 -05 57 24.6                 EL014557
     K04L00B  C2004 06 08.93514 14 42 16.56 -05 56 56.3                 EL014557
     K04L00B  C2004 06 09.14712 14 42 11.22 -04 45 54.7          17.7 R EL014G90
     K04L00B  C2004 06 09.14859 14 42 11.13 -04 45 25.4          17.9 R EL014G90
     K04L00B  C2004 06 09.15000 14 42 11.06 -04 44 57.8          17.7 R EL014G90
     K04L00B  C2004 06 09.15725 14 42 10.56 -04 42 32.5          17.8 R EL014926
     K04L00B  C2004 06 09.15769 14 42 10.58 -04 42 23.9          17.7 R EL014926
     K04L00B  C2004 06 09.15812 14 42 10.52 -04 42 15.6          17.7 R EL014926
     K04L00B  C2004 06 09.17234 14 42 09.46 -04 37 34.1          18.5 R EL014854
     K04L00B  C2004 06 09.17408 14 42 09.37 -04 37 00.3          18.5 R EL014854
     K04L00B  C2004 06 09.17443 14 42 09.39 -04 36 53.1          18.5 R EL014854
     K04L00B  C2004 06 09.17652 14 42 09.18 -04 36 11.3          18.5 R EL014854
     K04L00B  C2004 06 09.17827 14 42 09.07 -04 35 37.8          18.5 R EL014854
     K04L00B  C2004 06 09.18248 14 42 08.72 -04 34 14.8          18.5 R EL014854

Observer details:
118 Modra.  Observers J. Vilagi, L. Kornos.  0.6-m f/5.5 reflector + CCD.
246 Klet Observatory-KLENOT.  Observer M. Kocer.  1.06-m KLENOT Telescope
    + CCD.
557 Ondrejov.  Observer P. Kusnirak.  0.65-m f/3.6 reflector + CCD.
611 Starkenburg.  Observer F. Hormuth.  0.45-m f/4.4 reflector + CCD.
620 Observatorio Astronomico de Mallorca.  Observers S. Sanchez, R. Stoss,
    J. Nomen.  0.30-m f/9 Schmidt-Cassegrain + CCD.
699 Lowell Observatory-LONEOS.  Observer B. A. Skiff.  0.59-m LONEOS Schmidt
    + CCD.
854 Sabino Canyon Observatory, Tucson.  Observer J. E. McGaha.  0.356-m f/10.0
    Schmidt-Cassegrain + CCD.
926 Tenagra II Observatory.  Observers P. R. Holvorcem, M. Schwartz.  0.81-m
    f/7 Ritchey-Chretien + CCD.
G90 Three Buttes Observatory, Tucson.  Observer G. R. Jones.  0.4-m
    Ritchey-Chretien + CCD.

Orbital elements:
2004 LB                                                              PHA 0.005D
Epoch 2004 June 4.0 TT = JDT 2453160.5                  MPC
M 216.60002              (2000.0)            P               Q
n   0.91433675     Peri.  144.07568     +0.67106021     -0.45817257
a   1.0513128      Node   254.06168     +0.45537167     +0.87513434
e   0.0527591      Incl.   37.31447     +0.58507678     -0.15562063
P   1.08           H   21.8           G   0.15
From 39 observations 2004 June 7-9.

Ephemeris:
2004 LB                  a,e,i = 1.05, 0.05, 37                  q = 0.9958
Date    TT    R. A. (2000) Decl.     Delta      r     Elong.  Phase     V
2004 06 04    14 48.07   -37 01.0    0.094    1.097   150.1    27.4    18.1
2004 06 05    14 46.46   -30 32.8    0.093    1.096   150.7    27.0    18.0
2004 06 06    14 45.11   -24 00.1    0.093    1.096   149.7    27.9    18.1
2004 06 07    14 43.98   -17 33.3    0.094    1.095   147.4    30.0    18.2
2004 06 08    14 43.04   -11 22.2    0.097    1.095   144.2    32.9    18.3
2004 06 09    14 42.26   -05 34.2    0.100    1.094   140.5    36.2    18.5
2004 06 10    14 41.62   -00 14.0    0.105    1.094   136.6    39.7    18.7
2004 06 11    14 41.11   +04 36.5    0.110    1.093   132.7    43.0    18.9
2004 06 12    14 40.71   +08 57.3    0.116    1.093   129.1    46.2    19.1
2004 06 13    14 40.40   +12 49.9    0.123    1.092   125.7    49.0    19.3
2004 06 14    14 40.18   +16 16.7    0.130    1.091   122.6    51.6    19.5
2004 06 15    14 40.04   +19 20.3    0.138    1.091   119.7    54.0    19.7
2004 06 16    14 39.97   +22 03.3    0.146    1.090   117.1    56.0    19.8
2004 06 17    14 39.96   +24 28.3    0.154    1.090   114.7    57.9    20.0
2004 06 18    14 40.01   +26 37.6    0.163    1.089   112.6    59.5    20.2
2004 06 19    14 40.12   +28 33.1    0.172    1.088   110.6    60.9    20.3
2004 06 20    14 40.27   +30 16.7    0.180    1.088   108.8    62.2    20.5
2004 06 21    14 40.46   +31 49.9    0.189    1.087   107.1    63.3    20.6
2004 06 22    14 40.70   +33 13.9    0.199    1.086   105.5    64.3    20.7
2004 06 23    14 40.97   +34 30.0    0.208    1.086   104.1    65.2    20.9
2004 06 24    14 41.28   +35 39.1    0.217    1.085   102.7    66.0    21.0
2004 06 25    14 41.62   +36 42.0    0.226    1.084   101.5    66.7    21.1
2004 06 26    14 41.99   +37 39.6    0.235    1.084   100.3    67.4    21.2
2004 06 27    14 42.38   +38 32.3    0.245    1.083    99.2    67.9    21.3
2004 06 28    14 42.80   +39 20.7    0.254    1.082    98.2    68.4    21.4
2004 06 29    14 43.24   +40 05.3    0.263    1.082    97.2    68.8    21.5
2004 06 30    14 43.70   +40 46.5    0.273    1.081    96.2    69.2    21.6
2004 07 01    14 44.18   +41 24.6    0.282    1.080    95.4    69.6    21.7
2004 07 02    14 44.68   +42 00.0    0.291    1.079    94.5    69.9    21.7
2004 07 03    14 45.19   +42 32.9    0.300    1.079    93.7    70.1    21.8
2004 07 04    14 45.72   +43 03.5    0.310    1.078    92.9    70.4    21.9
2004 07 05    14 46.25   +43 32.1    0.319    1.077    92.2    70.6    22.0
2004 07 06    14 46.81   +43 58.8    0.328    1.076    91.5    70.8    22.0
2004 07 07    14 47.37   +44 23.9    0.337    1.076    90.8    70.9    22.1
2004 07 08    14 47.95   +44 47.3    0.346    1.075    90.2    71.1    22.1
2004 07 09    14 48.53   +45 09.4    0.355    1.074    89.5    71.2    22.2
2004 07 10    14 49.13   +45 30.1    0.363    1.073    88.9    71.3    22.3
2004 07 11    14 49.74   +45 49.6    0.372    1.072    88.3    71.4    22.3
2004 07 12    14 50.36   +46 08.0    0.381    1.072    87.8    71.4    22.4
2004 07 13    14 50.98   +46 25.4    0.389    1.071    87.2    71.5    22.4
2004 07 14    14 51.62   +46 41.8    0.398    1.070    86.7    71.5    22.5

Timothy B. Spahr             (C) Copyright 2004 MPC           M.P.E.C. 2004-L14

Read MPEC 2004-L13 Read MPEC 2004-L15


Our Web policy. Index to the CBAT/MPC/ICQ pages.


Valid HTML 4.01!